Location: Westminster
(33.3626°N, 96.4619°W)
Time: 10:27:32
(UTC+00:00)

Cosmos 1782 - Pass Details

Date: 03 December 2021
Orbit: 537 x 547 km, 82.5° (Epoch: 24 January)

Event Time Altitude Azimuth Distance (km) Brightness Sun altitude
Rises 23:50:08 0° 178° (S) 2,700 6.6 -7.0°
Reaches altitude 10° 23:52:18 10° 175° (S) 1,811 5.7 -7.4°
Maximum altitude 23:56:15 64° 94° (E) 610 2.8 -8.1°
Drops below altitude 10° 00:00:12 10° 13° (NNE) 1,820 5.1 -8.9°
Sets 00:02:23 0° 11° (N) 2,715 6.1 -9.3°
